Location: Chmeln�
(49.6483°N, 14.9871°E)
Time: 23:22:46
(UTC+00:00)

NOSS 2-2 (C) - Pass Details

Date: 18 September 2020
Orbit: 468 x 1740 km, 63.3° (Epoch: 19 October)

Event Time Altitude Azimuth Distance (km) Brightness Sun altitude
Rises 18:15:52 0° 203° (SSW) 2,504 6.8 -11.9°
Reaches altitude 10° 18:17:58 10° 196° (SSW) 1,624 5.7 -12.3°
Maximum altitude 18:21:17 42° 124° (SE) 706 3.4 -12.8°
Drops below altitude 10° 18:24:58 10° 53° (NE) 1,810 5.6 -13.3°
Sets 18:27:27 0° 46° (NE) 2,839 6.7 -13.7°
